MARKET Weather Reports


time (UTC)temp
C
wind
direction
speed
KPH
gust
KPH
rain 1hr
cm
rain 24hr
cm
rain mn
cm
humidity
%
barometer
mb
20260507122729 7 144 14.5 16.1 0.00 0.00 0.00 55 1017.3
20260507120731 7 142 17.7 19.3 0.00 0.00 0.00 55 1017.2
20260507114731 7 142 19.3 20.9 0.00 0.00 0.00 58 1017.1
20260507112729 7 144 16.1 17.7 0.00 0.00 0.00 58 1017.1
20260507110729 7 141 12.9 14.5 0.00 0.00 0.00 55 1017.2
20260507104729 7 138 11.3 12.9 0.00 0.00 0.00 57 1017.0
20260507102729 7 145 12.9 14.5 0.00 0.00 0.00 57 1016.9
20260507100729 7 151 14.5 16.1 0.00 0.00 0.00 59 1016.7
20260507094729 6 156 12.9 14.5 0.00 0.00 0.00 65 1016.6
20260507092729 6 156 12.9 14.5 0.00 0.00 0.00 73 1016.6
20260507090730 6 157 12.9 14.5 0.00 0.00 0.00 76 1016.5
20260507084729 6 158 14.5 16.1 0.00 0.00 0.00 74 1016.4
20260507082729 6 166 14.5 16.1 0.00 0.00 0.00 73 1016.3
20260507080729 6 161 17.7 19.3 0.00 0.00 0.00 77 1016.2
20260507074729 6 160 16.1 19.3 0.00 0.00 0.00 78 1016.3
20260507072729 6 166 16.1 17.7 0.00 0.00 0.00 80 1016.2
20260507070728 5 163 14.5 16.1 0.00 0.00 0.00 82 1016.1
20260507064729 5 169 14.5 17.7 0.00 0.00 0.00 82 1016.0
20260507062728 5 163 17.7 20.9 0.00 0.00 0.00 82 1015.9
20260507060728 5 162 17.7 20.9 0.00 0.00 0.00 80 1015.8
20260507054729 5 164 17.7 19.3 0.00 0.00 0.00 78 1015.6
20260507052728 5 160 17.7 20.9 0.00 0.00 0.00 81 1015.4
20260507045052 5 158 17.7 19.3 0.00 0.00 0.00 81 1015.4
20260507042728 5 150 17.7 20.9 0.00 0.00 0.00 75 1015.3
20260507040730 5 221 8.0 9.7 0.00 0.00 0.00 71 1015.3
20260507034729 5 223 9.7 11.3 0.00 0.00 0.00 67 1015.1
20260507032729 5 214 9.7 11.3 0.00 0.00 0.00 68 1015.0
20260507030730 5 201 8.0 9.7 0.00 0.00 0.00 71 1015.0
20260507024728 5 218 9.7 11.3 0.00 0.00 0.00 74 1015.1
20260507022729 5 215 11.3 12.9 0.00 0.00 0.00 73 1015.1
20260507020728 5 226 12.9 14.5 0.00 0.00 0.00 67 1015.0
20260507014728 5 226 12.9 14.5 0.00 0.00 0.00 75 1015.1
20260507012728 5 199 16.1 19.3 0.00 0.00 0.00 73 1014.7
20260507010728 5 210 16.1 17.7 0.00 0.00 0.00 76 1014.8
20260507004728 5 187 17.7 20.9 0.00 0.00 0.00 75 1014.6
20260507002728 5 192 17.7 19.3 0.00 0.00 0.00 74 1014.5
20260507000728 5 192 16.1 19.3 0.00 0.00 0.00 75 1014.5
20260506234729 5 191 17.7 20.9 0.00 0.00 0.00 76 1014.4
20260506232728 5 188 17.7 19.3 0.00 0.00 0.00 77 1014.4
20260506230729 5 183 16.1 17.7 0.00 0.00 0.00 79 1014.4
20260506224727 5 185 17.7 19.3 0.00 0.00 0.00 79 1014.4
20260506222728 5 175 19.3 20.9 0.00 0.00 0.00 78 1014.2
20260506220728 5 176 22.5 25.7 0.00 0.00 0.00 72 1013.9
20260506214727 5 177 22.5 24.1 0.00 0.00 0.00 72 1014.0
20260506212728 5 176 24.1 25.7 0.00 0.00 0.00 71 1013.9
20260506211050 5 176 24.1 27.4 0.00 0.00 0.00 73 1013.9
20260506204727 5 171 24.1 27.4 0.00 0.00 0.00 78 1014.0
20260506202727 5 174 25.7 27.4 0.00 0.00 0.00 75 1014.1
20260506200727 5 175 24.1 27.4 0.00 0.00 0.00 75 1014.1
20260506194727 5 175 27.4 30.6 0.00 0.00 0.00 76 1014.0
20260506192727 5 169 27.4 30.6 0.00 0.00 0.00 74 1014.0
20260506190727 5 165 27.4 30.6 0.00 0.00 0.00 74 1014.0
20260506184726 5 165 25.7 29.0 0.00 0.00 0.00 78 1014.0
20260506182727 6 162 25.7 29.0 0.00 0.00 0.00 78 1014.0
20260506180727 6 161 25.7 29.0 0.00 0.00 0.00 78 1014.0
20260506174727 6 159 25.7 29.0 0.00 0.00 0.00 75 1013.9
20260506172726 6 159 25.7 29.0 0.00 0.00 0.00 73 1013.8
20260506170726 6 158 22.5 25.7 0.00 0.00 0.00 72 1013.9
20260506164726 6 151 20.9 24.1 0.00 0.00 0.00 73 1013.9
20260506162727 6 152 19.3 22.5 0.00 0.00 0.00 71 1014.0
20260506160726 6 162 19.3 22.5 0.00 0.00 0.00 65 1014.0
20260506154726 7 162 17.7 20.9 0.00 0.00 0.00 66 1013.9
20260506152727 7 159 16.1 17.7 0.00 0.00 0.00 64 1014.0
20260506150725 7 157 17.7 19.3 0.00 0.00 0.00 67 1014.1
20260506144725 7 158 16.1 20.9 0.00 0.00 0.00 65 1014.3
20260506142726 7 161 14.5 17.7 0.00 0.00 0.00 65 1014.4
20260506140725 7 158 16.1 17.7 0.00 0.00 0.00 69 1014.4
20260506134726 7 159 17.7 19.3 0.00 0.00 0.00 68 1014.5
20260506132725 7 157 17.7 20.9 0.00 0.00 0.00 68 1014.5
20260506130725 7 151 16.1 19.3 0.00 0.00 0.00 64 1014.6
20260506124725 7 135 14.5 16.1 0.00 0.00 0.00 66 1014.6